CAPE
0 0 nan nan nan 0 0 1 0 0 nan nan nan nan nan nan nan nan nan nan nan nan 2 7 7 15 28 34 34 34 33 30 25 25 18 14 9 9 9 10 10 14 17 19 19 23 26 28 28 30 33 34 34 34 36 38 38 39 40 38 38 33 28 22 22 17 11 6 0 0 nan nan nan nan nan nan nan nan nan nan nan nan nan nan nan nan
0 nan nan nan nan 0 0 1 0 0 nan nan nan nan nan nan nan nan nan nan nan nan 0 2 2 6 17 38 44 44 40 38 34 34 27 22 15 15 9 9 9 11 15 18 18 20 25 29 29 32 34 34 32 32 33 31 31 31 31 27 27 23 18 14 14 7 2 nan nan nan nan nan nan nan nan nan nan nan nan nan nan nan nan nan nan nan
0 nan 0 nan nan 0 0 1 0 0 nan nan nan nan nan nan nan nan nan nan nan nan nan 0 0 3 8 27 46 46 41 39 37 37 31 25 19 19 11 10 10 12 12 14 14 19 20 22 22 25 27 27 27 27 26 22 22 17 15 12 12 7 4 0 0 nan nan nan nan nan nan nan nan nan nan nan nan nan nan nan nan nan nan nan nan nan
nan nan 0 0 0 0 1 2 0 0 nan nan nan nan nan nan nan nan nan nan nan nan nan nan nan nan 2 12 26 26 29 27 28 28 23 15 13 13 10 9 9 10 13 15 15 15 15 16 16 17 17 16 15 15 15 12 12 7 5 2 2 nan nan nan nan nan nan nan nan nan nan nan nan nan nan nan nan nan nan nan nan nan nan nan nan nan
nan nan 0 0 0 0 0 0 nan nan nan nan nan nan nan nan nan nan nan nan nan nan nan nan nan nan nan nan 9 9 15 14 10 10 5 3 3 3 3 2 2 2 5 7 7 10 9 8 8 8 8 8 6 6 5 2 2 0 nan nan nan nan nan nan nan nan nan nan nan nan nan nan nan nan nan nan nan nan nan nan nan nan nan nan nan nan
nan nan nan nan nan 0 nan nan nan nan nan nan nan nan nan nan nan nan nan nan nan nan nan nan nan nan nan nan nan nan nan nan nan nan nan nan nan nan nan nan nan nan nan nan nan nan nan 0 0 0 0 0 0 0 nan nan nan nan nan nan nan nan nan nan nan nan nan nan nan nan nan nan nan nan nan nan nan nan nan nan nan nan nan nan nan nan
nan nan nan nan nan nan nan nan nan nan nan nan nan nan nan nan nan nan nan nan nan nan nan nan nan nan nan nan nan nan nan nan nan nan nan nan nan nan nan nan nan nan nan nan nan nan nan nan nan nan nan nan nan nan nan nan nan nan nan nan nan nan nan nan nan nan nan nan nan nan nan nan nan nan nan nan nan nan nan nan nan nan nan nan nan nan
nan nan nan nan nan nan nan nan nan nan nan nan nan nan nan nan nan nan nan nan nan nan nan nan nan nan nan nan nan nan nan nan nan nan nan nan nan nan nan nan nan nan nan nan nan nan nan nan nan nan nan nan nan nan nan nan nan nan nan nan nan nan nan nan nan nan nan nan nan nan nan nan nan nan nan nan nan nan nan nan nan nan nan nan nan nan
nan nan nan nan nan nan nan nan nan nan nan nan nan nan nan nan nan nan nan nan nan nan nan nan nan nan nan nan nan nan nan nan nan nan nan nan nan nan nan nan nan nan nan nan nan nan nan nan nan nan nan nan nan nan nan nan nan nan nan nan nan nan nan nan nan nan nan nan nan nan nan nan nan nan nan nan nan nan nan nan nan nan nan nan nan nan
nan nan nan nan nan nan nan nan nan nan nan nan nan nan nan nan nan nan nan nan nan nan nan nan nan nan nan nan nan nan nan nan nan nan nan nan nan nan nan nan nan nan nan nan nan nan nan nan nan nan nan nan nan nan nan nan nan nan nan nan nan nan nan nan nan nan nan nan nan nan nan nan nan nan nan nan nan nan nan nan nan nan nan nan nan nan
nan nan nan nan nan nan nan nan nan nan nan nan nan nan nan nan nan nan nan nan nan nan nan nan nan nan nan nan nan nan nan nan nan nan nan nan nan nan nan nan nan nan nan nan nan nan nan nan nan nan nan nan nan nan nan nan nan nan nan nan nan nan nan nan nan nan nan nan nan nan nan nan nan nan nan nan nan nan nan nan nan nan nan nan nan 1
nan nan nan nan nan nan nan nan nan nan nan nan nan nan nan nan nan nan nan nan nan nan nan nan nan nan nan nan nan nan nan nan nan nan nan nan nan nan nan nan nan nan nan nan nan nan nan nan nan nan nan nan nan nan nan nan nan nan nan nan nan nan nan nan nan nan nan nan nan nan nan nan nan nan nan nan nan nan nan nan nan nan nan nan nan 1
nan nan nan nan nan nan nan nan nan nan nan nan nan nan nan nan nan nan nan nan nan nan nan nan nan nan nan nan nan nan nan nan nan nan nan nan nan nan nan nan nan nan nan nan nan nan nan nan nan nan nan nan nan nan nan nan nan nan nan nan nan nan nan nan nan nan nan nan nan nan nan nan nan nan nan nan nan nan nan nan nan nan nan 0 0 1
nan nan nan nan nan nan nan nan nan nan nan nan nan nan nan nan nan nan nan nan nan nan nan nan nan nan nan nan nan nan nan nan nan nan nan nan nan nan nan nan nan nan nan nan nan nan nan nan nan nan nan nan nan nan nan nan nan nan nan nan nan nan nan nan nan nan nan nan nan nan nan nan nan nan nan nan nan nan nan nan nan nan nan 0 0 1
nan nan nan nan nan nan nan nan nan nan nan nan nan nan nan nan nan nan nan nan nan nan nan nan nan nan nan nan nan nan nan nan nan nan nan nan nan nan nan nan nan nan nan nan nan nan nan nan nan nan nan nan nan nan nan nan nan nan nan nan nan nan 0 0 0 0 nan nan nan nan nan nan nan nan nan nan nan nan nan nan nan nan 0 0 0 1
nan nan nan nan nan nan nan nan nan nan nan nan nan nan nan nan nan nan nan nan nan nan nan nan nan nan nan nan nan nan nan nan nan nan nan nan nan nan nan nan nan nan nan nan nan nan nan nan nan nan nan nan nan nan nan nan nan nan nan nan nan 1 2 2 2 0 nan nan nan nan nan nan nan nan nan nan nan nan nan nan nan nan 0 0 0 1
nan nan nan nan nan nan nan nan nan nan nan nan nan nan nan nan nan nan nan nan nan nan nan nan nan nan nan nan nan nan nan nan nan nan nan nan nan nan nan nan nan nan nan nan nan nan nan nan nan nan nan nan nan nan nan nan nan nan nan nan nan nan 0 0 0 nan nan nan nan nan nan nan nan nan nan nan nan nan nan nan nan nan 0 0 0 1
nan nan nan nan nan nan nan nan nan nan nan nan nan nan nan nan nan nan nan nan nan nan nan nan nan nan nan nan nan nan nan nan nan nan nan nan nan nan nan nan nan nan nan nan nan nan nan nan nan nan nan nan nan nan nan nan nan nan nan nan nan nan nan nan nan nan nan nan nan nan nan nan nan nan nan nan nan nan nan nan nan nan 0 1 1 3
nan nan nan nan nan nan nan nan nan nan nan nan nan nan nan nan nan nan nan nan nan nan nan nan nan nan nan nan nan nan nan nan nan nan nan nan nan nan nan nan nan nan nan nan nan nan nan nan nan nan nan nan nan nan nan nan nan nan nan nan nan nan nan nan nan nan nan nan nan nan nan nan nan nan nan nan nan nan nan nan nan nan 0 1 1 3
nan nan nan nan nan nan nan nan nan nan nan nan nan nan nan nan nan nan nan nan nan nan nan nan nan nan nan nan nan nan nan nan nan nan nan nan nan nan nan nan nan nan nan nan nan nan nan nan nan nan nan nan nan nan nan nan nan nan nan nan nan nan nan nan nan nan nan nan nan nan nan nan nan nan nan nan nan nan nan nan nan nan 0 2 2 3
nan nan nan nan nan nan nan nan nan nan nan nan nan nan nan nan nan nan nan nan nan nan nan nan nan nan nan nan nan nan nan nan nan nan nan nan nan nan nan nan nan nan nan nan nan nan nan nan nan nan nan nan nan nan nan nan nan nan nan nan nan nan nan nan nan nan nan nan nan nan nan nan nan nan nan nan nan nan nan nan nan nan 1 2 2 3
nan nan nan nan nan nan nan nan nan nan nan nan nan nan nan nan nan nan nan nan nan nan nan nan nan nan nan nan nan nan nan nan nan nan nan nan nan nan nan nan nan nan nan nan nan nan nan nan nan nan nan nan nan nan nan nan nan nan nan nan nan nan nan nan nan nan nan nan nan nan nan nan nan nan nan nan nan nan nan nan nan nan 1 1 1 1
nan nan nan nan nan nan nan nan nan nan nan nan nan nan nan nan nan nan nan nan nan nan nan nan nan nan nan nan nan nan nan nan nan nan nan nan nan nan nan nan nan nan nan nan nan nan nan nan nan nan nan nan nan nan nan nan nan nan nan nan nan nan nan nan nan nan nan nan nan nan nan nan nan nan nan nan nan nan nan nan nan 0 0 1 1 2
nan nan nan nan nan nan nan nan nan nan nan nan nan nan nan nan nan nan nan nan nan nan nan nan nan nan nan nan nan nan nan nan nan nan nan nan nan nan nan nan nan nan nan nan nan nan nan nan nan nan nan nan nan nan nan nan nan nan nan nan nan nan nan nan nan nan nan nan nan nan nan nan nan nan nan nan nan nan nan nan nan 0 1 1 1 1
nan nan nan nan nan nan nan nan nan nan nan nan nan nan nan nan nan nan nan nan nan nan nan nan nan nan nan nan nan nan nan nan nan nan nan nan nan nan nan nan nan nan nan nan nan nan nan nan nan nan nan nan nan nan nan nan nan nan nan nan nan nan nan nan nan nan nan nan nan nan nan nan nan nan nan nan nan nan nan 0 0 0 1 1 1 0
nan nan nan nan nan nan nan nan nan nan nan nan nan nan nan nan nan nan nan nan nan nan nan nan nan nan nan nan nan nan nan nan nan nan nan nan nan nan nan nan nan nan nan nan nan nan nan nan nan nan nan nan nan nan nan nan nan nan nan nan nan nan nan nan nan nan nan nan nan nan nan nan nan nan nan nan nan nan nan 0 0 0 0 0 0 nan
nan nan nan 0 0 0 nan nan nan nan nan nan nan nan nan nan nan nan nan nan nan nan nan nan nan nan nan nan nan nan nan nan nan nan nan nan nan nan nan nan nan nan nan nan nan nan nan nan nan nan nan nan nan nan nan nan nan nan nan nan nan nan nan nan nan nan nan nan nan nan nan nan nan nan nan nan nan nan nan nan nan nan nan nan nan nan
nan nan nan nan nan nan nan 0 nan nan nan nan nan nan nan nan nan nan nan nan nan nan nan nan nan nan nan nan nan nan nan nan nan nan nan nan nan nan nan nan nan nan nan nan nan nan nan nan nan nan nan nan nan nan nan nan nan nan nan nan nan nan nan nan nan nan nan nan nan nan nan nan nan nan nan nan nan nan nan nan nan nan nan nan nan nan
nan nan nan nan nan nan nan nan 0 0 3 4 0 0 nan nan nan nan nan nan nan nan nan nan nan nan nan nan nan nan nan nan nan nan nan nan nan nan nan nan nan nan nan nan nan nan nan nan nan nan nan nan nan nan nan nan nan nan nan nan nan nan nan nan nan nan nan nan nan nan nan nan nan nan nan nan nan nan nan nan nan nan nan nan nan nan
nan nan nan nan nan nan nan nan nan nan nan nan nan nan nan nan nan nan nan nan nan nan nan nan nan nan nan nan nan nan nan nan nan nan nan nan nan nan nan nan nan nan nan nan nan nan nan nan nan nan nan nan nan nan nan nan nan nan nan nan nan nan nan nan nan nan nan nan nan nan nan nan nan nan nan nan nan nan nan nan nan nan nan nan nan nan
nan nan nan nan nan nan nan nan nan nan nan nan nan nan nan nan nan nan nan nan nan nan nan nan nan nan nan nan nan nan nan nan nan nan nan nan nan nan nan nan nan nan nan nan nan nan nan nan nan nan nan nan nan nan nan nan nan nan nan nan nan nan nan nan nan nan nan nan nan nan nan nan nan nan nan nan nan nan nan nan nan nan nan nan nan nan
nan nan nan nan nan nan nan nan nan nan nan nan nan nan nan nan nan nan nan nan nan nan nan nan nan nan nan nan nan nan nan nan nan nan nan nan nan nan nan nan nan nan nan nan nan nan nan nan nan nan nan nan nan nan nan nan nan nan nan nan nan nan nan nan nan nan nan nan nan nan nan nan nan nan nan nan nan nan nan nan nan nan nan nan nan nan
nan nan nan nan nan nan nan nan nan nan nan nan nan nan nan nan nan nan nan nan nan nan nan nan nan nan nan nan nan nan nan nan nan nan nan nan nan nan nan nan nan nan nan nan nan nan nan nan nan nan nan nan nan nan nan nan nan nan nan nan nan nan nan nan nan nan nan nan nan nan nan nan nan nan nan nan nan nan nan nan nan nan nan nan nan nan
nan nan nan nan nan nan nan nan nan nan nan nan nan nan nan nan nan nan nan nan nan nan nan nan nan nan nan nan nan nan nan nan nan nan nan nan nan nan nan nan nan nan nan nan nan nan nan nan nan nan nan nan nan nan nan nan nan nan nan nan nan nan nan nan nan nan nan nan nan nan nan nan nan nan nan nan nan nan nan nan nan nan 0 nan nan nan
nan nan nan nan nan nan nan nan nan nan nan nan nan nan nan nan nan nan nan nan nan nan nan nan nan nan nan nan nan nan nan nan nan nan nan nan nan nan nan nan nan nan nan nan nan nan nan nan nan 0 nan nan nan nan nan nan nan nan nan nan nan nan nan nan nan nan nan nan nan nan nan nan nan nan nan nan nan nan nan nan nan nan nan 0 0 nan
nan nan nan nan nan nan nan nan nan nan nan nan nan nan nan nan nan nan nan nan nan nan nan nan nan nan nan nan nan nan nan nan nan nan nan nan nan nan nan nan nan nan nan 0 0 0 0 0 0 1 0 nan nan nan nan nan nan nan nan nan nan nan nan nan nan nan nan nan nan nan nan nan nan nan nan nan nan nan nan nan nan nan nan nan nan nan
nan nan nan nan nan nan nan nan nan nan nan nan nan nan nan nan nan nan nan nan nan nan nan nan nan nan nan nan nan nan nan nan nan nan nan nan nan nan nan nan nan nan nan nan nan 0 1 0 0 nan nan nan nan nan nan nan nan nan nan nan nan nan nan nan nan nan nan nan nan nan nan nan nan nan nan nan nan nan nan nan nan nan nan nan nan nan
nan nan nan nan nan nan nan nan nan nan nan nan nan nan nan nan nan nan nan nan nan nan nan nan nan nan nan nan nan nan nan nan nan nan nan nan nan nan nan nan nan nan nan nan nan 0 0 0 0 0 nan nan nan nan nan nan nan nan nan nan nan nan nan nan nan nan nan nan nan nan nan nan nan nan nan nan nan nan nan nan nan nan nan nan nan nan
nan nan nan nan nan nan nan nan nan nan nan nan nan nan nan nan nan nan nan nan nan nan nan nan nan nan nan nan nan nan nan nan nan nan nan nan nan nan nan nan nan nan nan nan nan nan nan 0 0 nan 0 0 0 0 nan nan nan nan nan nan nan nan nan nan nan nan nan nan nan nan nan nan nan nan nan nan nan nan nan nan nan nan nan nan nan nan
nan nan nan nan nan nan nan nan nan nan nan nan nan nan nan nan nan nan nan nan nan nan nan nan nan nan nan nan nan nan nan nan nan nan nan nan nan nan nan nan nan nan nan nan nan nan nan 0 0 1 3 1 1 1 0 nan nan nan 0 nan nan nan nan nan nan nan nan nan nan nan nan nan nan nan nan nan nan nan nan nan nan nan nan nan nan nan
nan nan nan nan nan nan nan nan nan nan nan nan nan nan nan nan nan nan nan nan nan nan nan nan nan nan nan nan nan nan nan nan nan nan nan nan nan nan nan nan nan nan nan nan nan nan nan nan nan 1 2 2 3 3 1 0 0 2 4 nan nan nan nan nan nan nan nan nan nan nan nan nan nan nan nan nan nan nan nan nan nan nan nan nan nan nan
nan nan nan nan nan nan nan nan nan nan nan nan nan nan nan nan nan nan nan nan nan nan nan nan nan nan nan nan nan nan nan nan nan nan nan nan nan nan nan nan nan nan nan nan nan nan 0 0 0 0 0 1 1 1 0 nan nan 1 2 nan nan nan nan nan nan nan nan nan nan nan nan nan nan nan nan nan nan nan nan nan nan nan nan nan nan nan
nan nan nan nan nan nan nan nan nan nan nan nan nan nan nan nan nan nan nan nan nan nan nan nan nan nan nan nan nan nan nan nan nan nan nan nan nan nan nan nan nan nan nan nan nan nan nan 0 0 nan nan 0 1 1 0 nan nan 0 nan nan nan nan nan nan nan nan nan nan nan nan nan nan nan nan nan nan nan nan nan nan nan nan nan nan nan nan
nan nan nan nan nan nan nan nan nan nan nan nan nan nan nan nan nan nan nan nan nan nan nan nan nan nan nan nan nan nan nan nan nan nan nan nan nan nan nan nan nan nan nan nan nan nan nan nan nan 0 0 1 1 1 1 0 0 0 nan nan nan nan nan nan nan nan nan nan nan nan nan nan nan nan nan nan nan nan nan nan nan nan nan nan nan nan
nan nan nan nan nan nan nan nan nan nan nan nan nan nan nan nan nan nan nan nan nan nan nan nan nan nan nan nan nan nan nan nan nan nan nan nan nan nan nan nan nan nan nan nan nan nan nan nan nan nan nan 0 0 0 1 0 0 1 0 nan nan nan nan nan nan nan nan nan nan nan nan nan nan nan nan nan nan nan nan nan nan nan nan nan nan nan
nan nan nan nan nan nan 0 nan nan nan nan nan nan nan nan nan nan nan nan nan nan nan nan nan nan nan nan nan nan nan nan nan nan nan nan nan nan nan nan nan nan nan nan nan nan nan nan nan nan nan nan nan 0 0 1 0 0 0 nan nan nan nan nan nan nan nan nan nan nan nan nan nan nan nan nan nan nan nan nan nan nan nan nan nan nan nan
nan nan nan nan nan nan nan nan nan nan nan nan nan nan nan nan nan nan nan nan nan nan nan nan nan nan nan nan nan nan 0 0 nan nan nan nan nan nan nan nan nan nan nan nan nan nan nan nan nan nan nan nan nan nan nan nan nan nan nan nan nan nan nan nan nan nan nan nan nan nan nan nan nan nan nan nan nan nan nan nan nan nan nan nan nan nan
nan nan nan nan nan nan nan nan nan nan nan nan nan nan nan nan nan nan nan nan nan nan nan nan nan nan nan nan 0 0 1 0 nan nan nan nan nan nan nan nan nan nan nan nan nan nan nan nan nan nan nan nan nan nan nan nan nan nan nan nan nan nan nan nan nan nan nan nan nan nan nan nan nan nan nan nan nan nan nan nan nan nan nan nan nan nan
nan nan nan nan nan nan nan nan nan nan nan nan nan nan nan nan 2 2 nan nan nan nan 0 5 5 6 1 nan nan nan nan nan nan nan nan nan nan nan nan nan nan nan nan nan nan nan nan nan nan nan nan nan nan nan nan nan nan nan nan nan nan nan nan nan nan nan nan nan nan nan nan nan nan nan nan nan nan nan nan 0 0 nan nan nan nan nan
nan nan nan nan nan nan nan nan nan nan nan nan nan nan nan nan nan nan nan nan nan nan nan nan nan nan nan nan nan nan nan nan nan nan nan nan nan nan nan nan nan nan nan nan nan nan nan nan nan nan nan nan nan nan nan nan nan nan nan nan nan nan nan nan nan nan nan nan nan nan nan nan nan nan nan nan nan nan 0 nan nan nan nan nan nan nan
nan nan nan nan nan nan nan 0 2 2 1 nan nan nan nan nan nan nan nan nan nan nan nan nan nan nan nan nan nan nan nan nan nan nan nan nan nan nan nan nan nan nan nan nan nan nan nan nan nan nan nan nan nan nan nan nan nan nan nan nan nan nan nan nan nan nan nan nan nan nan nan nan nan nan nan nan 0 0 nan nan nan nan nan nan nan nan
CIN
-0 -0 nan nan nan -2 -1 -1 -2 -2 nan nan nan nan nan nan nan nan nan nan nan nan -2 -2 -2 -2 -0 -0 -0 -0 -0 -0 -0 -0 -0 -0 -0 -0 -0 -0 -0 -0 -0 -0 -0 -0 -0 -0 -0 -0 -0 -0 -0 -0 -0 -0 -0 -0 -0 -0 -0 -0 -0 -0 -0 -0 -0 -0 -0 -0 nan nan nan nan nan nan nan nan nan nan nan nan nan nan nan nan
-0 nan nan nan nan -1 -0 -1 -1 -1 nan nan nan nan nan nan nan nan nan nan nan nan -8 -5 -5 -5 -2 -0 -0 -0 -0 -0 -0 -0 -0 -0 -0 -0 -0 -0 -0 -0 -0 -0 -0 -0 -0 -0 -0 -0 -0 -0 -0 -0 -0 -0 -0 -0 -0 -0 -0 -0 -0 -0 -0 -0 -0 nan nan nan nan nan nan nan nan nan nan nan nan nan nan nan nan nan nan nan
-1 nan -1 nan nan -1 -0 -1 -1 -1 nan nan nan nan nan nan nan nan nan nan nan nan nan -11 -11 -8 -7 -1 -0 -0 -0 -0 -0 -0 -0 -0 -0 -0 -0 -0 -0 -0 -0 -0 -0 -0 -0 -0 -0 -0 -0 -0 -0 -0 -0 -0 -0 -0 -0 -0 -0 -0 -0 -0 -0 nan nan nan nan nan nan nan nan nan nan nan nan nan nan nan nan nan nan nan nan nan
nan nan -1 -1 -1 -1 -0 -0 -1 -1 nan nan nan nan nan nan nan nan nan nan nan nan nan nan nan nan -12 -5 -0 -0 -0 -0 -0 -0 -0 -0 -0 -0 -0 -0 -0 -0 -0 -0 -0 -0 -0 -0 -0 -0 -0 -0 -0 -0 -0 -0 -0 -0 -0 -0 -0 nan nan nan nan nan nan nan nan nan nan nan nan nan nan nan nan nan nan nan nan nan nan nan nan nan
nan nan -1 -2 -2 -2 -1 -1 nan nan nan nan nan nan nan nan nan nan nan nan nan nan nan nan nan nan nan nan -0 -0 -0 -0 -0 -0 -0 -0 -0 -0 -0 -0 -0 -0 -0 -0 -0 -0 -0 -0 -0 -0 -0 -0 -0 -0 -0 -0 -0 -0 nan nan nan nan nan nan nan nan nan nan nan nan nan nan nan nan nan nan nan nan nan nan nan nan nan nan nan nan
nan nan nan nan nan -1 nan nan nan nan nan nan nan nan nan nan nan nan nan nan nan nan nan nan nan nan nan nan nan nan nan nan nan nan nan nan nan nan nan nan nan nan nan nan nan nan nan -0 -0 -0 -0 -0 -0 -0 nan nan nan nan nan nan nan nan nan nan nan nan nan nan nan nan nan nan nan nan nan nan nan nan nan nan nan nan nan nan nan nan
nan nan nan nan nan nan nan nan nan nan nan nan nan nan nan nan nan nan nan nan nan nan nan nan nan nan nan nan nan nan nan nan nan nan nan nan nan nan nan nan nan nan nan nan nan nan nan nan nan nan nan nan nan nan nan nan nan nan nan nan nan nan nan nan nan nan nan nan nan nan nan nan nan nan nan nan nan nan nan nan nan nan nan nan nan nan
nan nan nan nan nan nan nan nan nan nan nan nan nan nan nan nan nan nan nan nan nan nan nan nan nan nan nan nan nan nan nan nan nan nan nan nan nan nan nan nan nan nan nan nan nan nan nan nan nan nan nan nan nan nan nan nan nan nan nan nan nan nan nan nan nan nan nan nan nan nan nan nan nan nan nan nan nan nan nan nan nan nan nan nan nan nan
nan nan nan nan nan nan nan nan nan nan nan nan nan nan nan nan nan nan nan nan nan nan nan nan nan nan nan nan nan nan nan nan nan nan nan nan nan nan nan nan nan nan nan nan nan nan nan nan nan nan nan nan nan nan nan nan nan nan nan nan nan nan nan nan nan nan nan nan nan nan nan nan nan nan nan nan nan nan nan nan nan nan nan nan nan nan
nan nan nan nan nan nan nan nan nan nan nan nan nan nan nan nan nan nan nan nan nan nan nan nan nan nan nan nan nan nan nan nan nan nan nan nan nan nan nan nan nan nan nan nan nan nan nan nan nan nan nan nan nan nan nan nan nan nan nan nan nan nan nan nan nan nan nan nan nan nan nan nan nan nan nan nan nan nan nan nan nan nan nan nan nan nan
nan nan nan nan nan nan nan nan nan nan nan nan nan nan nan nan nan nan nan nan nan nan nan nan nan nan nan nan nan nan nan nan nan nan nan nan nan nan nan nan nan nan nan nan nan nan nan nan nan nan nan nan nan nan nan nan nan nan nan nan nan nan nan nan nan nan nan nan nan nan nan nan nan nan nan nan nan nan nan nan nan nan nan nan nan -0
nan nan nan nan nan nan nan nan nan nan nan nan nan nan nan nan nan nan nan nan nan nan nan nan nan nan nan nan nan nan nan nan nan nan nan nan nan nan nan nan nan nan nan nan nan nan nan nan nan nan nan nan nan nan nan nan nan nan nan nan nan nan nan nan nan nan nan nan nan nan nan nan nan nan nan nan nan nan nan nan nan nan nan nan nan -0
nan nan nan nan nan nan nan nan nan nan nan nan nan nan nan nan nan nan nan nan nan nan nan nan nan nan nan nan nan nan nan nan nan nan nan nan nan nan nan nan nan nan nan nan nan nan nan nan nan nan nan nan nan nan nan nan nan nan nan nan nan nan nan nan nan nan nan nan nan nan nan nan nan nan nan nan nan nan nan nan nan nan nan -0 -0 -0
nan nan nan nan nan nan nan nan nan nan nan nan nan nan nan nan nan nan nan nan nan nan nan nan nan nan nan nan nan nan nan nan nan nan nan nan nan nan nan nan nan nan nan nan nan nan nan nan nan nan nan nan nan nan nan nan nan nan nan nan nan nan nan nan nan nan nan nan nan nan nan nan nan nan nan nan nan nan nan nan nan nan nan -0 -0 -0
nan nan nan nan nan nan nan nan nan nan nan nan nan nan nan nan nan nan nan nan nan nan nan nan nan nan nan nan nan nan nan nan nan nan nan nan nan nan nan nan nan nan nan nan nan nan nan nan nan nan nan nan nan nan nan nan nan nan nan nan nan nan -10 -9 -9 -8 nan nan nan nan nan nan nan nan nan nan nan nan nan nan nan nan -0 -0 -0 -0
nan nan nan nan nan nan nan nan nan nan nan nan nan nan nan nan nan nan nan nan nan nan nan nan nan nan nan nan nan nan nan nan nan nan nan nan nan nan nan nan nan nan nan nan nan nan nan nan nan nan nan nan nan nan nan nan nan nan nan nan nan -11 -10 -8 -8 -8 nan nan nan nan nan nan nan nan nan nan nan nan nan nan nan nan -0 -0 -0 -0
nan nan nan nan nan nan nan nan nan nan nan nan nan nan nan nan nan nan nan nan nan nan nan nan nan nan nan nan nan nan nan nan nan nan nan nan nan nan nan nan nan nan nan nan nan nan nan nan nan nan nan nan nan nan nan nan nan nan nan nan nan nan -9 -8 -8 nan nan nan nan nan nan nan nan nan nan nan nan nan nan nan nan nan -0 -0 -0 -0
nan nan nan nan nan nan nan nan nan nan nan nan nan nan nan nan nan nan nan nan nan nan nan nan nan nan nan nan nan nan nan nan nan nan nan nan nan nan nan nan nan nan nan nan nan nan nan nan nan nan nan nan nan nan nan nan nan nan nan nan nan nan nan nan nan nan nan nan nan nan nan nan nan nan nan nan nan nan nan nan nan nan -0 -0 -0 -0
nan nan nan nan nan nan nan nan nan nan nan nan nan nan nan nan nan nan nan nan nan nan nan nan nan nan nan nan nan nan nan nan nan nan nan nan nan nan nan nan nan nan nan nan nan nan nan nan nan nan nan nan nan nan nan nan nan nan nan nan nan nan nan nan nan nan nan nan nan nan nan nan nan nan nan nan nan nan nan nan nan nan -0 -0 -0 -0
nan nan nan nan nan nan nan nan nan nan nan nan nan nan nan nan nan nan nan nan nan nan nan nan nan nan nan nan nan nan nan nan nan nan nan nan nan nan nan nan nan nan nan nan nan nan nan nan nan nan nan nan nan nan nan nan nan nan nan nan nan nan nan nan nan nan nan nan nan nan nan nan nan nan nan nan nan nan nan nan nan nan -0 -0 -0 -0
nan nan nan nan nan nan nan nan nan nan nan nan nan nan nan nan nan nan nan nan nan nan nan nan nan nan nan nan nan nan nan nan nan nan nan nan nan nan nan nan nan nan nan nan nan nan nan nan nan nan nan nan nan nan nan nan nan nan nan nan nan nan nan nan nan nan nan nan nan nan nan nan nan nan nan nan nan nan nan nan nan nan -0 -0 -0 -0
nan nan nan nan nan nan nan nan nan nan nan nan nan nan nan nan nan nan nan nan nan nan nan nan nan nan nan nan nan nan nan nan nan nan nan nan nan nan nan nan nan nan nan nan nan nan nan nan nan nan nan nan nan nan nan nan nan nan nan nan nan nan nan nan nan nan nan nan nan nan nan nan nan nan nan nan nan nan nan nan nan nan -0 -0 -0 -0
nan nan nan nan nan nan nan nan nan nan nan nan nan nan nan nan nan nan nan nan nan nan nan nan nan nan nan nan nan nan nan nan nan nan nan nan nan nan nan nan nan nan nan nan nan nan nan nan nan nan nan nan nan nan nan nan nan nan nan nan nan nan nan nan nan nan nan nan nan nan nan nan nan nan nan nan nan nan nan nan nan -0 -0 -0 -0 -0
nan nan nan nan nan nan nan nan nan nan nan nan nan nan nan nan nan nan nan nan nan nan nan nan nan nan nan nan nan nan nan nan nan nan nan nan nan nan nan nan nan nan nan nan nan nan nan nan nan nan nan nan nan nan nan nan nan nan nan nan nan nan nan nan nan nan nan nan nan nan nan nan nan nan nan nan nan nan nan nan nan -0 -0 -0 -0 -0
nan nan nan nan nan nan nan nan nan nan nan nan nan nan nan nan nan nan nan nan nan nan nan nan nan nan nan nan nan nan nan nan nan nan nan nan nan nan nan nan nan nan nan nan nan nan nan nan nan nan nan nan nan nan nan nan nan nan nan nan nan nan nan nan nan nan nan nan nan nan nan nan nan nan nan nan nan nan nan -0 -0 -0 -0 -0 -0 -0
nan nan nan nan nan nan nan nan nan nan nan nan nan nan nan nan nan nan nan nan nan nan nan nan nan nan nan nan nan nan nan nan nan nan nan nan nan nan nan nan nan nan nan nan nan nan nan nan nan nan nan nan nan nan nan nan nan nan nan nan nan nan nan nan nan nan nan nan nan nan nan nan nan nan nan nan nan nan nan -0 -0 -0 -0 -0 -0 nan
nan nan nan -0 -0 -0 nan nan nan nan nan nan nan nan nan nan nan nan nan nan nan nan nan nan nan nan nan nan nan nan nan nan nan nan nan nan nan nan nan nan nan nan nan nan nan nan nan nan nan nan nan nan nan nan nan nan nan nan nan nan nan nan nan nan nan nan nan nan nan nan nan nan nan nan nan nan nan nan nan nan nan nan nan nan nan nan
nan nan nan nan nan nan nan -0 nan nan nan nan nan nan nan nan nan nan nan nan nan nan nan nan nan nan nan nan nan nan nan nan nan nan nan nan nan nan nan nan nan nan nan nan nan nan nan nan nan nan nan nan nan nan nan nan nan nan nan nan nan nan nan nan nan nan nan nan nan nan nan nan nan nan nan nan nan nan nan nan nan nan nan nan nan nan
nan nan nan nan nan nan nan nan -0 -0 -0 -0 -7 -7 nan nan nan nan nan nan nan nan nan nan nan nan nan nan nan nan nan nan nan nan nan nan nan nan nan nan nan nan nan nan nan nan nan nan nan nan nan nan nan nan nan nan nan nan nan nan nan nan nan nan nan nan nan nan nan nan nan nan nan nan nan nan nan nan nan nan nan nan nan nan nan nan
nan nan nan nan nan nan nan nan nan nan nan nan nan nan nan nan nan nan nan nan nan nan nan nan nan nan nan nan nan nan nan nan nan nan nan nan nan nan nan nan nan nan nan nan nan nan nan nan nan nan nan nan nan nan nan nan nan nan nan nan nan nan nan nan nan nan nan nan nan nan nan nan nan nan nan nan nan nan nan nan nan nan nan nan nan nan
nan nan nan nan nan nan nan nan nan nan nan nan nan nan nan nan nan nan nan nan nan nan nan nan nan nan nan nan nan nan nan nan nan nan nan nan nan nan nan nan nan nan nan nan nan nan nan nan nan nan nan nan nan nan nan nan nan nan nan nan nan nan nan nan nan nan nan nan nan nan nan nan nan nan nan nan nan nan nan nan nan nan nan nan nan nan
nan nan nan nan nan nan nan nan nan nan nan nan nan nan nan nan nan nan nan nan nan nan nan nan nan nan nan nan nan nan nan nan nan nan nan nan nan nan nan nan nan nan nan nan nan nan nan nan nan nan nan nan nan nan nan nan nan nan nan nan nan nan nan nan nan nan nan nan nan nan nan nan nan nan nan nan nan nan nan nan nan nan nan nan nan nan
nan nan nan nan nan nan nan nan nan nan nan nan nan nan nan nan nan nan nan nan nan nan nan nan nan nan nan nan nan nan nan nan nan nan nan nan nan nan nan nan nan nan nan nan nan nan nan nan nan nan nan nan nan nan nan nan nan nan nan nan nan nan nan nan nan nan nan nan nan nan nan nan nan nan nan nan nan nan nan nan nan nan nan nan nan nan
nan nan nan nan nan nan nan nan nan nan nan nan nan nan nan nan nan nan nan nan nan nan nan nan nan nan nan nan nan nan nan nan nan nan nan nan nan nan nan nan nan nan nan nan nan nan nan nan nan nan nan nan nan nan nan nan nan nan nan nan nan nan nan nan nan nan nan nan nan nan nan nan nan nan nan nan nan nan nan nan nan nan -0 nan nan nan
nan nan nan nan nan nan nan nan nan nan nan nan nan nan nan nan nan nan nan nan nan nan nan nan nan nan nan nan nan nan nan nan nan nan nan nan nan nan nan nan nan nan nan nan nan nan nan nan nan -6 nan nan nan nan nan nan nan nan nan nan nan nan nan nan nan nan nan nan nan nan nan nan nan nan nan nan nan nan nan nan nan nan nan -0 -0 nan
nan nan nan nan nan nan nan nan nan nan nan nan nan nan nan nan nan nan nan nan nan nan nan nan nan nan nan nan nan nan nan nan nan nan nan nan nan nan nan nan nan nan nan -11 -11 -11 -9 -6 -6 -3 -0 nan nan nan nan nan nan nan nan nan nan nan nan nan nan nan nan nan nan nan nan nan nan nan nan nan nan nan nan nan nan nan nan nan nan nan
nan nan nan nan nan nan nan nan nan nan nan nan nan nan nan nan nan nan nan nan nan nan nan nan nan nan nan nan nan nan nan nan nan nan nan nan nan nan nan nan nan nan nan nan nan -11 -5 -3 -3 nan nan nan nan nan nan nan nan nan nan nan nan nan nan nan nan nan nan nan nan nan nan nan nan nan nan nan nan nan nan nan nan nan nan nan nan nan
nan nan nan nan nan nan nan nan nan nan nan nan nan nan nan nan nan nan nan nan nan nan nan nan nan nan nan nan nan nan nan nan nan nan nan nan nan nan nan nan nan nan nan nan nan -15 -8 -3 -3 -2 nan nan nan nan nan nan nan nan nan nan nan nan nan nan nan nan nan nan nan nan nan nan nan nan nan nan nan nan nan nan nan nan nan nan nan nan
nan nan nan nan nan nan nan nan nan nan nan nan nan nan nan nan nan nan nan nan nan nan nan nan nan nan nan nan nan nan nan nan nan nan nan nan nan nan nan nan nan nan nan nan nan nan nan -8 -8 nan -3 -5 -4 -4 nan nan nan nan nan nan nan nan nan nan nan nan nan nan nan nan nan nan nan nan nan nan nan nan nan nan nan nan nan nan nan nan
nan nan nan nan nan nan nan nan nan nan nan nan nan nan nan nan nan nan nan nan nan nan nan nan nan nan nan nan nan nan nan nan nan nan nan nan nan nan nan nan nan nan nan nan nan nan nan -13 -13 -8 -3 -5 -4 -4 -6 nan nan nan -3 nan nan nan nan nan nan nan nan nan nan nan nan nan nan nan nan nan nan nan nan nan nan nan nan nan nan nan
nan nan nan nan nan nan nan nan nan nan nan nan nan nan nan nan nan nan nan nan nan nan nan nan nan nan nan nan nan nan nan nan nan nan nan nan nan nan nan nan nan nan nan nan nan nan nan nan nan -11 -8 -7 -4 -4 -3 -8 -8 -1 -0 nan nan nan nan nan nan nan nan nan nan nan nan nan nan nan nan nan nan nan nan nan nan nan nan nan nan nan
nan nan nan nan nan nan nan nan nan nan nan nan nan nan nan nan nan nan nan nan nan nan nan nan nan nan nan nan nan nan nan nan nan nan nan nan nan nan nan nan nan nan nan nan nan nan -23 -15 -15 -10 -10 -10 -5 -5 -7 nan nan -4 -3 nan nan nan nan nan nan nan nan nan nan nan nan nan nan nan nan nan nan nan nan nan nan nan nan nan nan nan
nan nan nan nan nan nan nan nan nan nan nan nan nan nan nan nan nan nan nan nan nan nan nan nan nan nan nan nan nan nan nan nan nan nan nan nan nan nan nan nan nan nan nan nan nan nan nan -21 -21 nan nan -17 -8 -8 -6 nan nan -7 nan nan nan nan nan nan nan nan nan nan nan nan nan nan nan nan nan nan nan nan nan nan nan nan nan nan nan nan
nan nan nan nan nan nan nan nan nan nan nan nan nan nan nan nan nan nan nan nan nan nan nan nan nan nan nan nan nan nan nan nan nan nan nan nan nan nan nan nan nan nan nan nan nan nan nan nan nan -21 -21 -18 -8 -8 -5 -6 -6 -7 nan nan nan nan nan nan nan nan nan nan nan nan nan nan nan nan nan nan nan nan nan nan nan nan nan nan nan nan
nan nan nan nan nan nan nan nan nan nan nan nan nan nan nan nan nan nan nan nan nan nan nan nan nan nan nan nan nan nan nan nan nan nan nan nan nan nan nan nan nan nan nan nan nan nan nan nan nan nan nan -25 -12 -12 -5 -6 -6 -5 -8 nan nan nan nan nan nan nan nan nan nan nan nan nan nan nan nan nan nan nan nan nan nan nan nan nan nan nan
nan nan nan nan nan nan -20 nan nan nan nan nan nan nan nan nan nan nan nan nan nan nan nan nan nan nan nan nan nan nan nan nan nan nan nan nan nan nan nan nan nan nan nan nan nan nan nan nan nan nan nan nan -11 -11 -8 -6 -6 -6 nan nan nan nan nan nan nan nan nan nan nan nan nan nan nan nan nan nan nan nan nan nan nan nan nan nan nan nan
nan nan nan nan nan nan nan nan nan nan nan nan nan nan nan nan nan nan nan nan nan nan nan nan nan nan nan nan nan nan -9 -11 nan nan nan nan nan nan nan nan nan nan nan nan nan nan nan nan nan nan nan nan nan nan nan nan nan nan nan nan nan nan nan nan nan nan nan nan nan nan nan nan nan nan nan nan nan nan nan nan nan nan nan nan nan nan
nan nan nan nan nan nan nan nan nan nan nan nan nan nan nan nan nan nan nan nan nan nan nan nan nan nan nan nan -9 -9 -5 -5 nan nan nan nan nan nan nan nan nan nan nan nan nan nan nan nan nan nan nan nan nan nan nan nan nan nan nan nan nan nan nan nan nan nan nan nan nan nan nan nan nan nan nan nan nan nan nan nan nan nan nan nan nan nan
nan nan nan nan nan nan nan nan nan nan nan nan nan nan nan nan -12 -12 nan nan nan nan -11 -3 -3 -1 -8 nan nan nan nan nan nan nan nan nan nan nan nan nan nan nan nan nan nan nan nan nan nan nan nan nan nan nan nan nan nan nan nan nan nan nan nan nan nan nan nan nan nan nan nan nan nan nan nan nan nan nan nan -12 -12 nan nan nan nan nan
nan nan nan nan nan nan nan nan nan nan nan nan nan nan nan nan nan nan nan nan nan nan nan nan nan nan nan nan nan nan nan nan nan nan nan nan nan nan nan nan nan nan nan nan nan nan nan nan nan nan nan nan nan nan nan nan nan nan nan nan nan nan nan nan nan nan nan nan nan nan nan nan nan nan nan nan nan nan -6 nan nan nan nan nan nan nan
nan nan nan nan nan nan nan -20 -10 -10 -15 nan nan nan nan nan nan nan nan nan nan nan nan nan nan nan nan nan nan nan nan nan nan nan nan nan nan nan nan nan nan nan nan nan nan nan nan nan nan nan nan nan nan nan nan nan nan nan nan nan nan nan nan nan nan nan nan nan nan nan nan nan nan nan nan nan -4 -4 nan nan nan nan nan nan nan nan
Wind_Speed
3 3 3 5 5 6 7 9 9 8 8 8 8 9 9 11 11 12 14 13 12 11 10 11 11 12 13 17 18 19 19 19 19 19 19 19 20 20 20 20 20 19 19 18 18 18 18 18 18 18 17 17 17 16 16 16 16 16 15 15 14 13 13 12 12 12 12 12 12 11 11 10 9 8 8 7 7 7 7 6 6 5 5 4 5 5
4 4 4 6 7 7 6 9 10 10 9 10 9 9 10 11 10 10 10 12 12 11 10 10 11 11 12 14 16 18 18 18 18 18 18 18 18 18 18 18 18 18 17 17 17 17 17 17 17 17 17 17 16 16 16 15 15 14 14 13 12 12 11 11 11 11 12 11 11 10 10 9 8 8 7 7 7 7 7 6 6 5 5 5 5 5
4 5 5 7 8 8 7 9 10 10 10 10 9 9 11 11 10 9 8 9 10 10 9 9 9 10 11 12 15 18 18 18 18 18 18 18 18 17 17 17 17 17 17 16 16 16 16 16 17 17 17 16 16 15 15 14 14 13 12 11 11 10 10 10 10 11 11 11 10 10 9 8 8 8 7 7 7 7 7 6 6 6 5 5 6 6
4 5 5 5 7 8 7 7 8 8 8 8 9 10 10 9 8 7 7 8 8 9 9 9 9 8 8 10 13 16 18 18 18 18 18 18 18 18 17 17 17 17 16 16 16 16 16 16 17 17 17 16 15 14 14 13 13 12 11 10 9 9 9 9 10 10 10 10 10 9 9 8 8 8 8 7 7 7 7 7 6 6 6 6 6 6
4 4 4 4 5 6 6 6 6 6 6 6 7 8 8 7 6 6 6 8 8 8 8 8 8 8 7 7 10 14 17 17 18 18 18 18 18 18 17 17 17 17 16 16 15 15 15 16 16 16 16 16 15 14 13 12 12 11 10 9 9 9 9 9 10 10 10 10 9 9 9 8 8 8 8 8 7 7 7 7 7 7 7 7 7 7
3 3 3 3 4 4 4 4 4 4 4 5 5 6 6 6 6 6 6 6 7 7 7 7 7 7 7 7 9 13 15 16 17 17 18 18 18 18 17 17 17 16 16 15 15 15 15 15 16 16 16 15 15 14 13 12 11 10 9 9 8 8 9 9 9 9 9 9 9 9 8 8 8 8 8 7 7 7 7 7 7 7 7 7 8 8
3 2 2 3 3 3 3 3 3 3 3 4 4 5 5 5 5 6 6 5 5 5 5 6 6 6 7 7 9 10 12 14 15 16 16 17 17 17 17 17 17 16 16 15 15 15 15 15 16 16 15 15 14 13 12 11 10 10 9 8 8 8 8 9 9 9 9 9 8 8 8 7 7 7 7 7 7 7 7 7 7 7 8 8 8 8
3 2 2 2 2 2 2 2 2 2 2 3 3 4 4 4 5 5 5 5 5 5 4 5 5 6 6 6 7 7 8 9 10 11 13 14 14 15 16 16 16 16 16 15 15 15 15 15 15 15 15 15 14 13 12 11 10 9 8 8 8 8 8 8 8 8 8 8 8 7 7 7 6 6 6 6 6 7 7 7 7 7 8 8 8 8
3 3 2 2 2 2 2 2 2 2 1 2 3 3 4 4 4 4 5 5 5 4 4 4 5 5 5 5 5 5 6 7 8 8 9 9 10 11 13 14 15 15 15 15 15 14 14 15 15 15 14 14 13 12 11 10 9 8 7 7 7 7 7 7 7 7 7 7 7 6 6 6 6 5 5 6 6 6 6 7 7 7 8 8 8 8
3 3 2 2 2 2 2 2 2 2 2 2 2 2 3 3 4 4 5 4 4 4 4 4 4 4 3 4 4 5 6 7 9 10 11 10 10 11 11 11 12 13 14 14 14 14 14 14 14 14 13 12 12 11 9 8 8 7 6 6 6 6 6 6 6 6 6 6 6 5 5 5 5 5 5 5 5 6 6 6 7 7 7 7 8 8
3 2 2 2 2 2 2 2 1 2 2 3 3 3 3 3 3 3 4 4 3 3 4 4 3 3 3 3 3 4 4 5 7 8 10 11 11 11 11 10 10 11 12 12 13 13 13 13 12 12 11 10 10 9 8 7 6 6 5 5 5 5 5 5 5 5 5 5 5 4 4 4 4 4 4 5 5 5 5 5 6 6 7 7 7 7
2 2 2 2 2 2 2 2 2 2 3 3 3 4 4 3 3 3 4 3 3 3 3 3 3 3 3 2 3 3 3 4 4 5 5 7 7 7 7 7 8 9 9 9 10 11 11 11 10 10 9 8 8 7 6 6 5 5 4 4 4 4 4 4 4 4 4 4 4 3 3 3 3 4 4 4 4 5 5 5 5 5 6 6 7 7
2 2 2 2 2 2 2 2 2 3 3 3 3 3 3 2 2 2 3 3 3 3 3 3 3 3 4 3 3 3 3 3 3 3 3 4 4 4 4 4 4 5 5 5 6 7 9 9 9 8 8 7 7 6 5 5 4 4 4 3 3 3 3 3 3 3 3 3 3 3 3 3 3 3 4 4 4 4 4 4 5 5 5 6 6 7
2 2 2 2 2 2 2 2 3 3 3 2 2 1 1 1 2 2 3 3 2 2 2 3 3 3 4 4 4 3 3 3 3 3 3 3 3 3 3 3 3 3 3 4 4 5 6 6 6 6 7 7 6 5 5 4 4 4 4 3 3 2 2 2 2 2 2 2 2 2 2 2 3 3 3 4 4 4 4 4 4 5 5 6 6 7
2 2 2 2 2 2 2 2 2 3 2 2 2 1 1 2 2 2 3 2 2 2 2 3 3 3 3 4 4 4 3 3 2 3 3 3 3 3 3 3 3 3 3 3 4 4 5 5 4 4 5 6 6 5 5 5 5 6 5 5 4 3 2 2 1 2 2 2 2 2 2 2 3 3 3 4 4 4 4 4 5 5 5 6 6 7
2 2 2 2 2 2 2 2 2 2 2 2 2 2 3 3 3 2 2 2 2 2 2 3 3 2 2 2 3 3 3 3 2 2 2 3 3 3 3 3 3 3 3 3 3 4 4 4 4 4 4 6 7 7 7 7 8 7 7 6 5 4 3 3 2 2 2 2 2 3 3 3 4 4 4 4 4 4 4 5 5 5 6 6 7 7
2 2 2 2 2 2 2 2 2 1 1 2 2 2 2 2 2 2 2 2 2 2 2 2 2 2 1 2 3 3 3 2 2 2 2 2 3 3 3 2 3 3 3 3 3 3 3 4 4 4 4 7 8 8 8 8 9 9 8 8 7 6 5 5 5 4 4 4 5 5 5 5 5 5 5 5 5 5 5 5 6 6 6 7 7 7
2 2 2 2 2 1 1 1 1 1 1 2 2 2 2 2 2 2 2 2 2 2 2 2 1 1 1 1 2 3 3 2 2 2 2 2 2 3 3 2 2 3 3 3 3 3 3 3 3 4 5 8 9 9 9 9 9 10 10 10 10 9 9 8 8 8 8 8 8 8 8 7 7 7 7 6 6 6 6 6 6 7 7 7 7 7
1 1 2 2 1 1 1 1 1 1 1 1 1 1 2 2 2 2 2 2 2 2 2 2 1 1 1 0 1 2 3 2 2 2 2 2 2 3 3 3 3 3 3 3 3 3 3 3 4 6 7 9 10 10 10 10 10 11 12 12 12 12 11 11 11 10 10 10 9 9 9 8 8 7 7 7 7 7 7 7 7 7 7 7 8 8
2 1 1 2 2 1 1 1 0 0 1 1 2 2 2 2 2 2 2 2 2 2 2 2 1 1 0 1 2 3 3 2 2 3 2 2 2 3 4 3 3 3 3 3 3 3 3 3 4 5 8 9 10 10 10 11 11 12 12 12 12 12 12 11 11 10 10 9 9 8 8 8 7 7 7 7 7 7 7 7 7 7 8 8 8 8
2 1 1 1 2 2 1 0 1 1 1 2 2 2 2 1 2 2 1 1 1 2 2 2 1 0 1 1 2 3 3 2 2 2 2 1 2 2 3 3 3 2 3 3 3 3 3 3 3 4 6 8 9 10 11 11 11 11 11 11 11 11 11 10 10 9 9 8 8 8 7 7 7 7 7 7 7 7 7 7 7 8 8 8 8 8
2 1 1 1 1 1 2 1 1 1 1 2 2 2 1 1 1 1 0 1 1 1 1 1 0 1 1 1 2 3 3 2 1 2 2 2 2 2 3 2 2 2 2 2 3 3 3 3 3 4 6 8 10 10 10 10 11 11 11 11 10 10 10 10 9 9 8 8 8 7 7 7 7 7 7 7 7 7 7 8 8 8 8 8 9 9
3 2 1 1 1 2 2 1 1 0 1 2 2 2 2 2 2 2 1 1 1 1 1 1 1 0 0 1 1 2 3 2 1 2 2 2 1 2 3 2 2 2 2 2 3 3 3 2 3 4 5 8 10 10 10 10 10 10 10 10 10 10 10 10 9 9 9 8 8 8 7 7 7 7 7 7 8 8 8 8 8 9 9 9 9 10
4 4 3 3 2 2 2 2 1 1 1 2 2 2 2 2 2 2 2 2 2 2 1 1 1 2 2 2 2 3 4 3 2 2 3 2 0 1 2 2 2 2 2 2 2 3 3 2 2 3 4 7 9 10 10 10 10 10 11 11 11 11 11 10 10 10 9 9 9 8 8 8 8 8 8 8 8 8 9 9 9 9 10 10 10 10
4 3 3 3 3 3 3 3 3 3 3 3 3 3 3 3 3 3 2 2 2 2 2 3 3 3 3 3 3 3 3 3 2 2 2 1 0 1 2 2 2 2 2 2 2 2 2 2 2 2 3 5 7 9 9 10 10 11 11 11 11 11 11 11 11 10 10 10 10 9 9 9 9 9 9 9 9 9 9 10 10 10 10 11 10 10
5 5 5 5 6 6 6 5 5 5 5 4 3 3 3 3 3 3 3 3 2 2 3 3 3 2 2 2 2 2 3 3 2 2 2 2 1 1 1 2 2 2 2 3 2 2 2 2 2 2 3 4 5 8 9 10 11 12 12 12 12 12 12 12 11 11 11 11 11 10 10 10 10 10 10 10 10 10 10 10 11 11 11 11 10 9
11 11 11 11 11 10 9 7 6 6 6 6 5 4 3 3 3 3 3 2 2 2 3 3 2 1 2 2 2 2 2 3 2 2 1 2 2 1 1 1 2 2 2 3 2 2 2 2 2 2 3 3 4 6 9 11 12 12 13 13 13 12 12 12 12 12 12 12 11 11 11 11 11 11 11 11 11 11 11 11 12 12 11 10 8 7
14 14 14 14 13 12 12 10 9 8 7 6 6 5 3 3 3 2 1 0 1 2 3 3 2 1 1 1 1 2 2 2 2 2 0 2 2 1 1 1 1 2 2 2 2 2 2 2 2 2 3 3 3 4 7 10 11 12 12 12 12 12 12 12 12 12 12 12 12 12 12 12 12 12 12 12 12 12 12 12 12 12 10 8 5 3
12 12 13 13 13 12 12 11 11 10 10 9 7 5 3 3 3 2 2 1 2 3 3 2 2 1 0 1 1 2 2 2 2 2 0 2 1 0 1 1 1 2 2 2 2 2 2 2 1 1 2 3 4 4 5 7 8 9 9 11 11 11 11 12 12 12 13 13 13 13 13 12 12 12 12 12 12 13 13 13 12 10 7 5 4 3
8 9 9 9 10 9 9 8 8 9 10 10 9 7 4 3 3 3 3 2 2 3 2 2 1 1 1 1 2 2 2 2 2 2 1 2 1 1 1 1 1 2 2 2 2 2 3 2 2 2 2 3 4 4 4 5 5 5 5 7 8 9 10 11 12 12 13 13 13 13 13 13 13 13 13 13 13 13 13 13 11 8 4 3 3 3
5 6 5 6 6 6 6 5 6 6 8 8 8 6 5 3 2 2 3 3 3 3 3 2 1 1 1 2 2 1 1 2 2 2 1 2 1 0 1 1 1 1 2 2 2 1 2 2 2 2 2 3 4 4 4 4 4 3 3 4 4 5 8 10 11 12 12 13 13 13 13 13 13 13 13 13 13 13 13 13 11 8 4 3 3 3
4 4 4 4 4 4 4 4 4 4 5 5 5 5 4 4 3 2 2 2 3 3 3 2 2 2 1 2 2 1 2 2 3 2 2 2 1 0 0 1 1 1 1 2 2 1 1 2 2 3 3 3 3 4 4 4 3 3 2 2 2 4 7 8 9 10 10 11 12 13 13 13 13 13 13 13 13 13 13 13 11 8 4 3 3 4
3 3 3 4 4 4 4 4 4 4 4 4 4 4 4 4 3 3 2 2 2 3 3 3 2 2 1 1 1 1 2 3 3 2 1 2 2 1 0 1 1 1 2 1 1 1 1 1 2 2 3 3 3 3 3 3 3 2 2 2 2 3 5 6 7 7 8 8 9 10 11 12 12 12 13 13 13 13 13 13 12 10 7 4 4 4
3 4 4 4 4 4 4 4 4 4 4 4 4 4 3 3 3 3 2 2 2 2 3 3 3 3 2 1 0 1 3 3 3 2 1 3 2 1 1 1 1 1 1 1 1 0 1 1 2 2 3 3 2 2 2 3 2 2 1 1 1 2 4 4 4 5 6 6 5 6 7 8 9 10 11 12 12 12 13 13 13 13 11 7 5 4
3 4 4 4 4 4 4 4 4 4 4 4 3 3 3 3 3 3 2 2 1 1 2 2 3 3 3 3 1 1 2 3 3 2 1 3 3 2 1 1 1 1 1 0 0 0 1 2 2 3 4 3 3 2 2 2 2 2 1 1 1 2 3 3 3 4 5 4 4 4 4 4 5 6 7 9 11 12 13 14 14 14 14 12 9 6
3 3 4 3 3 3 3 3 3 3 3 3 3 2 2 2 2 2 2 2 2 1 1 1 2 2 3 3 3 2 2 3 2 1 1 2 2 2 1 1 2 2 1 1 1 1 1 2 3 4 4 4 3 3 3 2 2 2 2 2 2 3 3 3 3 3 3 3 4 4 4 4 4 5 6 9 11 12 14 14 15 15 14 14 12 10
3 3 3 3 2 2 2 2 2 2 2 2 2 2 2 2 2 1 1 1 1 1 1 1 0 1 2 2 3 3 3 2 2 1 1 1 2 2 1 1 1 2 1 1 1 1 2 2 3 3 3 3 3 3 3 3 2 2 2 2 3 3 4 4 3 3 2 3 4 4 4 4 4 5 6 9 10 11 12 13 13 14 14 14 13 13
3 2 2 2 2 1 1 1 1 1 1 1 1 1 1 1 1 1 1 1 1 1 1 1 1 1 1 1 2 2 2 2 1 1 2 2 1 1 1 1 1 1 1 1 1 2 2 2 3 3 3 3 3 4 4 3 3 3 3 3 3 3 4 3 3 2 2 3 4 5 5 5 4 4 5 6 6 6 7 8 9 10 12 11 12 13
2 2 2 2 1 1 1 1 1 1 2 2 2 1 1 1 1 1 1 1 0 0 0 0 1 1 1 1 1 2 2 2 2 2 2 2 2 2 1 1 1 1 1 1 2 2 2 2 2 3 3 3 3 4 3 3 3 4 4 4 3 3 3 2 2 2 2 3 4 5 5 5 4 4 4 4 4 4 5 5 6 7 7 6 7 10
2 2 2 2 1 1 1 1 2 2 2 2 1 1 1 1 1 2 2 2 1 1 0 0 1 1 1 1 1 1 1 2 2 2 2 2 2 2 2 2 2 2 2 2 2 2 2 2 3 3 3 3 4 4 4 3 4 5 6 5 4 3 3 2 3 3 3 3 3 4 4 4 4 4 4 4 4 4 4 4 5 6 5 4 4 6
1 1 1 2 2 2 2 2 2 1 1 1 1 1 2 2 2 2 3 3 3 2 1 1 2 2 2 2 2 2 1 2 2 2 2 2 2 2 2 2 2 2 2 2 2 2 3 3 3 3 3 3 4 5 5 4 5 6 7 5 5 5 5 4 4 3 2 2 3 3 4 4 5 5 5 5 5 5 4 4 5 5 5 4 4 4
1 1 1 2 2 2 2 2 1 1 0 0 1 2 1 1 1 1 2 3 3 2 2 2 2 2 3 3 3 3 2 2 2 2 2 3 3 3 2 2 2 2 2 2 2 2 3 3 3 3 3 3 4 4 4 5 5 6 5 5 5 6 6 5 3 2 1 2 3 3 4 4 4 4 5 5 5 5 5 5 6 6 6 5 4 4
0 1 1 2 2 2 2 1 0 1 1 2 2 1 1 0 0 0 1 1 1 2 2 1 1 1 1 2 3 3 3 3 2 2 2 3 3 3 3 3 3 2 2 2 2 2 3 3 3 3 3 3 3 4 5 5 5 5 4 5 5 5 4 4 3 2 2 3 4 4 4 4 4 5 5 5 5 5 5 6 8 8 8 6 5 5
0 1 2 2 2 1 1 1 1 1 1 1 1 1 1 1 0 0 0 1 1 2 2 1 1 1 1 1 2 2 3 3 2 2 2 3 3 4 3 3 3 3 3 2 2 2 2 3 3 3 3 3 3 4 5 5 5 5 4 5 5 4 4 4 4 4 4 5 5 5 5 4 4 4 4 5 5 5 5 5 5 6 7 7 7 6
1 1 1 1 1 1 1 1 1 1 1 1 1 1 1 1 1 0 0 1 1 2 2 1 1 1 1 1 1 2 2 2 2 2 2 3 3 3 3 3 3 3 3 3 3 2 2 2 3 3 2 3 3 4 5 6 6 6 6 5 5 5 5 5 5 5 5 6 6 6 5 4 4 4 4 5 5 5 5 5 6 6 6 6 6 7
1 1 1 1 1 1 1 1 1 1 1 1 1 1 1 1 1 0 0 1 1 1 2 1 1 1 1 2 2 2 1 1 1 1 2 2 2 2 2 2 2 3 3 3 3 3 3 3 3 3 3 3 4 5 5 5 5 6 5 5 5 5 5 5 5 5 5 6 6 6 6 4 3 3 4 5 6 6 5 6 6 7 7 7 7 7
1 1 1 1 1 1 1 1 1 1 1 1 1 1 1 1 1 1 1 1 1 1 1 1 1 1 2 2 2 2 2 2 2 2 2 2 2 2 2 2 3 3 3 3 3 4 4 4 4 3 3 4 4 5 5 5 5 5 5 5 4 4 4 4 5 5 5 5 5 5 4 4 4 4 5 5 6 6 6 6 6 7 7 7 6 6
1 1 0 1 1 1 1 1 1 1 1 1 1 2 2 2 2 2 2 1 1 1 1 1 2 2 2 2 2 3 3 3 3 3 3 2 2 2 2 2 2 2 2 3 3 4 5 5 5 5 4 4 4 5 5 4 4 5 4 4 4 4 5 5 5 5 5 5 5 5 4 4 4 5 6 6 6 6 6 6 5 5 5 5 5 5
1 1 0 1 1 1 1 1 1 1 2 2 2 2 2 2 3 3 2 1 1 1 2 2 2 3 3 3 3 3 3 3 3 3 3 2 2 2 2 2 1 2 2 2 2 3 3 5 6 6 6 6 5 5 5 5 5 4 4 4 4 4 5 6 6 5 5 5 5 5 4 4 5 6 6 7 8 7 6 6 5 4 4 4 4 4
1 0 0 0 1 1 1 1 2 2 2 2 2 2 2 2 2 1 1 1 1 1 2 2 2 3 3 3 3 3 3 3 3 3 3 2 2 2 1 1 1 2 2 2 2 2 2 3 4 5 7 8 7 6 5 5 5 4 4 4 4 4 5 5 5 5 5 5 5 5 5 5 5 5 5 6 7 8 8 7 6 6 4 4 4 5
1 1 1 1 1 1 2 2 2 2 2 2 2 2 2 2 1 1 1 1 1 2 2 2 2 3 3 3 3 3 3 3 3 3 3 2 2 2 2 1 1 2 2 2 2 2 2 2 2 3 5 8 9 8 5 5 4 4 4 4 4 4 4 5 5 5 5 5 5 5 5 5 5 4 4 4 6 7 9 8 8 7 5 4 4 5
Wind_Direction
54 50 43 45 54 57 45 35 35 39 39 37 37 39 41 44 45 44 42 42 43 43 44 45 47 50 56 61 64 66 68 68 68 69 71 73 75 77 78 78 79 79 79 79 79 79 79 79 78 76 74 72 70 68 66 64 63 62 60 59 59 60 61 64 66 69 70 71 71 71 70 69 67 65 64 62 61 59 56 53 47 38 27 15 5 358
41 42 39 39 47 53 48 35 35 38 38 36 36 36 37 41 42 42 41 42 42 43 43 43 44 46 50 57 62 65 67 69 71 72 73 75 77 79 81 84 86 87 87 87 87 87 86 84 83 81 78 76 74 72 70 69 67 66 65 65 65 65 66 68 70 71 71 71 71 70 69 68 66 64 61 59 57 54 50 46 40 31 21 12 5 0
36 38 34 35 41 46 46 35 35 37 40 39 38 37 39 41 40 38 37 38 40 42 43 42 43 45 48 55 60 63 65 68 71 73 74 75 77 79 81 84 87 89 91 93 93 93 93 91 89 87 85 83 81 79 77 76 75 74 72 72 72 72 73 73 73 73 73 72 71 69 67 65 63 60 56 53 49 46 43 38 31 24 16 9 4 359
39 40 34 37 41 44 44 39 37 37 40 42 42 41 42 43 42 38 35 36 38 39 40 40 41 43 46 53 58 62 64 67 69 72 74 75 76 77 78 80 83 85 88 90 92 94 96 96 95 94 92 90 88 87 85 84 83 82 80 80 79 78 78 77 76 75 74 73 71 69 66 63 59 55 51 47 43 39 35 30 24 16 10 5 1 356
45 44 39 44 47 47 43 43 42 42 42 44 46 46 47 49 47 42 38 37 38 38 37 36 37 38 42 48 55 59 62 65 67 69 71 72 73 75 75 76 78 79 81 83 86 89 91 92 94 95 94 93 92 90 88 87 86 85 84 83 81 80 78 77 76 76 75 74 72 70 67 63 58 53 48 43 38 34 29 24 18 12 7 3 358 354
52 47 46 53 57 56 49 45 45 46 49 49 51 53 56 56 55 51 45 41 40 39 37 35 34 34 35 40 48 54 57 59 61 63 65 67 69 70 71 72 73 74 75 76 78 80 82 84 85 87 87 87 87 86 85 84 83 82 81 80 78 77 76 76 76 76 76 75 74 71 68 64 58 53 46 41 35 29 24 19 14 9 4 0 356 353
70 61 58 62 64 65 61 52 49 52 61 61 59 58 61 62 62 60 56 50 46 42 40 38 35 34 32 34 40 45 50 52 54 56 58 60 62 63 65 66 67 68 69 70 72 73 75 76 77 78 78 79 79 79 78 78 77 77 76 75 74 74 74 75 76 77 77 77 75 72 69 64 59 53 46 39 33 26 21 16 11 7 3 359 355 351
97 88 74 74 76 76 73 57 45 48 69 78 77 73 70 68 67 65 62 57 51 48 45 42 40 36 32 28 32 38 44 47 48 49 52 53 54 56 57 59 60 61 62 63 65 67 68 70 71 72 73 73 73 73 72 72 72 72 72 71 72 73 75 76 78 79 79 78 77 74 70 65 59 53 46 39 32 25 19 14 10 5 2 358 354 351
100 94 70 61 73 89 91 62 25 5 22 76 89 91 90 85 78 72 65 58 53 50 51 51 47 41 31 25 27 34 43 48 49 48 49 47 47 49 51 52 53 55 56 57 58 60 63 65 67 68 69 70 70 70 69 68 68 67 68 69 71 74 78 81 83 83 83 82 79 76 71 65 59 52 45 39 32 26 19 13 8 4 1 357 353 350
79 78 64 39 36 56 85 67 19 350 353 40 64 75 84 88 87 83 74 62 53 49 53 57 55 48 32 24 26 35 45 49 51 51 50 46 46 48 47 46 46 48 49 51 52 54 57 60 62 64 66 67 68 68 67 66 65 64 65 67 72 77 83 87 89 90 89 86 82 78 72 64 56 49 42 37 31 25 19 13 7 3 359 355 351 347
65 61 63 47 34 34 56 51 12 351 5 38 47 47 43 50 65 79 82 70 57 48 50 52 54 48 34 20 20 30 44 48 47 46 45 42 43 45 44 43 42 41 42 44 46 48 50 54 57 60 63 65 66 67 66 64 63 62 63 67 73 82 91 96 98 97 94 89 84 78 70 61 52 44 38 32 28 23 17 11 5 0 355 351 347 344
60 48 49 41 31 23 23 10 357 358 14 36 43 40 29 20 29 56 79 73 64 55 53 51 47 43 36 19 11 16 34 45 43 38 36 34 33 33 37 38 37 36 36 38 39 41 43 46 49 53 56 59 61 63 64 63 62 61 62 68 77 89 102 106 106 103 97 90 83 75 65 56 47 39 32 27 23 19 14 8 1 355 350 346 341 338
47 40 39 29 23 17 9 5 8 14 20 32 42 43 23 1 8 38 70 67 60 54 57 58 51 41 34 28 19 17 26 36 37 35 35 30 23 19 23 32 31 29 28 32 32 32 34 37 40 42 44 47 50 53 55 56 57 58 60 66 77 93 107 113 113 107 97 87 78 69 60 50 40 32 26 22 17 13 8 3 356 350 345 340 336 332
40 38 43 34 23 14 10 19 29 33 25 25 31 34 9 350 9 36 61 56 44 36 50 65 59 46 34 27 20 17 22 30 30 30 35 32 21 11 10 27 30 26 26 32 29 25 24 28 31 33 33 36 39 41 41 45 48 49 50 54 61 74 95 106 106 99 88 79 71 62 52 41 33 26 21 16 12 8 4 357 352 346 341 337 333 330
45 49 57 46 32 17 9 23 36 38 25 11 2 0 0 9 19 33 55 50 31 20 39 58 58 49 36 25 15 9 15 31 34 31 30 27 18 9 6 24 28 26 28 35 30 23 19 26 27 25 23 28 32 35 37 41 43 44 44 44 46 50 61 70 78 79 73 65 57 49 39 31 27 23 19 15 11 5 0 354 348 343 339 334 332 329
49 61 70 61 46 25 7 21 36 39 18 0 0 8 21 18 19 27 50 42 25 19 35 46 44 34 15 7 6 9 12 32 38 33 25 17 10 5 6 25 31 28 24 33 28 19 15 22 24 23 21 29 33 37 39 44 45 45 45 44 44 45 48 53 56 57 56 48 41 35 32 30 28 25 22 18 13 6 359 351 345 340 335 331 328 325
59 66 75 75 64 38 0 15 30 35 19 11 13 20 31 23 21 25 39 36 32 33 38 51 54 44 4 348 356 4 8 28 36 36 26 10 0 357 2 29 38 33 21 29 27 22 16 19 18 18 20 32 37 41 43 46 48 48 49 48 47 47 47 48 48 46 43 40 37 35 34 33 31 28 24 20 12 4 356 348 341 335 331 327 324 321
68 76 85 85 79 50 358 13 20 27 29 28 24 22 27 23 25 32 39 41 44 46 44 52 63 71 51 346 337 343 352 20 39 41 27 6 351 349 357 23 38 40 30 29 23 19 18 15 12 13 22 36 41 44 47 50 52 54 54 53 52 51 49 48 46 44 42 40 38 36 34 33 30 26 21 15 6 358 349 342 336 331 327 323 320 319
83 86 94 102 103 83 23 23 23 33 56 65 64 50 34 19 23 33 40 43 53 64 73 69 67 70 83 340 313 319 332 9 45 52 33 0 344 344 355 8 24 33 34 27 19 12 10 7 8 14 25 36 42 47 50 54 57 58 58 56 55 53 50 48 46 43 40 38 36 34 30 27 23 17 11 4 356 348 340 334 329 326 323 321 319 318
92 83 111 127 124 103 56 23 333 172 153 141 116 95 74 44 35 36 38 43 49 62 80 79 75 69 221 288 307 318 330 10 47 55 40 0 338 341 356 5 17 28 31 17 5 0 0 0 5 14 25 36 44 51 55 57 59 60 59 57 54 51 48 45 42 38 34 31 28 24 20 15 10 5 358 351 344 338 333 329 326 324 323 321 321 320
96 85 221 170 136 115 105 204 226 208 170 136 108 88 80 66 50 40 34 44 47 48 58 63 62 155 233 302 328 335 339 14 53 65 50 12 349 344 353 4 18 31 31 6 351 348 352 0 3 10 22 41 49 55 58 59 59 59 57 54 50 46 41 37 33 28 24 20 16 12 7 2 358 352 347 342 338 333 331 328 326 325 324 324 323 323
106 127 231 210 154 123 127 174 211 211 169 122 107 102 109 99 87 71 59 76 74 71 77 95 179 225 227 320 333 334 343 14 66 95 79 40 2 343 343 357 15 32 31 356 339 338 345 0 7 14 23 41 51 56 58 57 56 54 50 46 41 36 32 27 22 18 13 9 6 2 357 354 350 346 343 339 337 334 333 331 330 328 328 327 327 327
98 111 137 128 108 104 111 124 148 198 136 110 118 129 145 141 144 150 161 146 138 135 149 191 229 279 15 1 344 345 358 8 43 88 89 72 11 330 333 349 10 25 21 337 327 331 339 354 9 14 17 38 47 52 54 52 49 45 41 36 31 26 21 17 13 9 5 2 359 356 353 351 348 346 344 342 339 338 336 334 333 332 331 330 330 331
90 94 93 91 92 97 102 105 102 88 78 88 98 111 122 126 130 136 141 139 132 127 126 63 21 12 9 14 16 13 10 2 16 59 86 91 62 313 327 349 8 15 349 312 310 320 328 339 2 10 3 29 37 41 44 42 39 35 31 26 21 17 12 9 6 3 0 358 356 354 352 350 348 347 345 343 341 339 337 336 334 333 332 332 332 333
91 93 93 96 99 102 106 109 109 105 96 92 93 97 100 102 102 99 89 84 81 77 66 52 40 22 355 0 10 14 4 355 9 49 89 96 77 310 328 353 7 3 328 305 306 319 326 328 345 1 1 15 22 27 31 30 29 26 22 17 13 10 6 4 1 359 357 355 353 352 351 349 347 346 344 342 341 339 337 336 334 332 331 331 332 332
90 91 90 87 86 88 95 102 108 113 115 113 112 112 109 101 91 75 54 47 48 55 63 60 48 16 335 345 354 356 344 351 13 46 91 105 92 10 336 352 357 346 317 307 313 324 330 324 336 349 353 358 5 11 17 20 20 18 14 11 8 5 2 360 357 355 353 352 351 349 348 346 345 343 342 340 339 337 335 334 332 331 330 330 330 330
74 73 71 68 66 65 66 72 84 99 114 120 125 127 118 94 73 57 39 27 39 63 76 75 63 18 345 352 344 333 328 350 11 33 74 102 95 60 329 331 337 334 319 308 305 308 316 322 334 340 336 333 337 351 7 11 12 11 8 5 3 0 358 356 353 351 350 349 347 346 345 343 342 340 339 338 337 335 334 332 331 330 329 329 329 326
63 61 59 56 54 52 50 51 56 66 81 95 107 114 106 86 76 70 53 37 67 75 83 92 93 73 13 336 316 312 321 345 355 0 15 91 88 70 291 307 326 337 327 310 302 303 318 326 331 326 321 319 323 340 358 5 6 4 1 359 357 355 353 351 350 348 347 345 344 343 341 340 339 338 337 336 334 333 332 331 329 329 328 327 323 314
52 52 51 48 46 44 43 43 45 49 55 61 66 70 73 86 101 121 169 159 102 83 82 95 108 117 124 301 311 324 339 339 334 330 348 77 78 38 277 306 338 351 343 330 326 327 334 329 323 315 310 322 332 345 354 359 359 357 354 354 352 350 348 347 345 344 343 342 340 339 338 337 336 335 334 333 332 331 330 329 329 328 327 324 318 308
34 37 37 34 34 34 35 35 36 40 44 47 47 47 48 75 109 136 160 137 110 97 99 104 115 121 114 27 7 0 350 326 315 317 38 71 63 324 303 340 356 2 7 12 4 345 327 317 309 305 309 332 344 351 351 350 347 345 345 347 346 344 343 343 342 341 340 338 337 336 335 334 333 333 332 331 330 329 328 328 328 328 325 322 316 310
24 27 24 18 18 20 25 26 28 30 34 37 39 39 41 57 87 119 136 124 115 114 121 127 133 133 116 80 56 23 320 298 297 312 70 79 80 302 323 0 0 0 18 50 46 5 317 310 309 315 332 346 348 346 340 334 331 331 334 340 338 336 336 338 339 338 336 335 334 333 331 330 330 329 328 328 327 327 326 326 327 327 323 321 316 309
28 30 24 15 13 17 22 23 23 24 27 30 30 32 38 47 61 80 102 111 115 119 123 129 133 133 124 121 134 177 236 267 278 289 89 92 94 110 34 38 18 0 4 62 85 92 300 300 308 321 341 346 341 332 325 319 317 320 331 338 331 326 330 334 336 335 333 331 330 329 327 326 325 325 324 324 324 323 323 323 324 324 321 318 312 307
34 30 23 20 21 24 25 22 23 25 28 29 27 26 31 37 46 54 63 81 103 115 121 125 126 126 120 128 157 206 241 259 268 273 94 100 101 97 80 67 47 15 4 39 78 115 179 262 293 310 325 328 322 315 309 307 306 313 339 343 326 317 323 330 331 329 326 325 324 323 322 321 320 320 320 320 320 319 319 319 319 319 318 314 309 305
37 32 26 23 23 24 24 23 24 26 30 30 28 26 26 30 34 40 44 51 77 106 126 131 133 134 132 126 150 272 274 268 266 262 98 107 113 123 123 103 92 66 33 34 54 95 195 248 278 300 308 310 308 301 296 295 302 315 348 337 311 305 311 320 321 318 315 315 315 313 313 313 313 314 315 315 315 315 315 315 315 314 314 311 308 305
37 32 27 24 23 24 24 23 24 26 29 27 24 22 24 26 27 28 27 28 41 77 122 138 144 146 144 142 150 249 278 269 264 253 127 120 124 131 134 146 151 146 122 158 217 237 263 268 285 298 306 310 309 302 291 287 297 310 317 290 276 281 290 298 302 305 305 306 304 301 300 300 302 306 308 309 309 310 311 311 312 311 310 309 306 302
38 30 23 21 22 25 27 25 24 24 23 14 7 5 12 19 22 19 12 10 13 23 56 125 147 150 150 150 158 185 238 254 258 250 139 132 131 133 141 177 178 170 170 214 244 262 282 289 296 302 305 306 306 304 298 296 304 313 310 290 278 274 274 274 276 282 293 298 298 296 294 293 294 296 298 304 306 307 308 309 309 308 307 305 302 298
40 28 16 16 20 25 25 19 16 11 6 352 343 344 355 8 12 8 356 355 355 0 6 1 5 170 167 159 167 183 213 233 243 236 179 157 144 138 153 195 193 183 182 231 275 293 299 300 300 301 299 298 296 296 300 307 314 316 305 291 281 275 274 271 267 265 273 281 286 289 291 292 293 295 298 302 305 307 308 307 306 305 303 301 299 296
35 20 3 2 9 18 19 10 353 337 319 314 313 316 325 337 347 342 332 336 346 351 350 338 313 278 247 208 195 196 209 219 224 219 203 189 171 158 165 214 218 205 193 230 266 281 288 293 296 298 295 291 289 291 297 305 309 306 296 286 277 270 267 267 263 258 258 271 280 287 291 293 296 298 300 304 307 309 308 305 303 301 300 299 297 295
29 12 352 349 350 354 352 319 287 273 267 271 277 282 289 297 315 331 339 342 341 331 278 264 263 264 257 247 231 221 212 209 209 207 198 189 180 172 176 205 228 231 219 220 228 238 250 265 277 286 291 293 295 297 298 300 301 302 300 297 288 275 261 257 254 253 255 269 282 289 294 296 299 300 299 300 302 303 301 299 298 298 299 300 299 296
27 6 342 332 317 280 241 249 252 254 260 275 290 306 328 340 347 350 350 349 348 342 302 287 291 301 290 281 263 246 227 213 203 196 185 181 180 180 183 201 222 234 233 226 220 221 227 244 258 269 277 286 293 297 297 297 300 305 309 308 305 297 287 280 274 268 266 271 279 287 292 295 296 296 293 292 290 289 287 288 291 294 295 296 297 299
36 7 328 307 286 261 243 242 241 241 247 275 336 6 15 13 3 357 351 349 347 343 346 356 357 352 342 333 319 297 268 243 219 201 186 184 182 184 190 207 222 234 238 235 229 226 227 241 251 260 265 274 283 288 290 292 297 300 303 302 300 297 296 292 286 280 282 280 278 280 286 294 297 296 294 291 286 279 275 275 279 283 286 281 278 280
56 13 290 276 268 260 253 247 233 205 161 54 37 30 19 19 15 6 357 346 338 332 334 347 359 0 352 337 325 315 303 279 249 219 202 196 194 195 202 212 218 223 229 237 241 242 239 242 248 255 261 269 278 284 287 288 290 292 292 292 296 298 298 292 285 276 291 290 288 288 289 293 294 294 293 290 285 280 276 271 270 273 276 274 268 263
49 260 248 247 250 253 260 285 354 40 42 35 25 5 329 343 48 47 21 332 312 305 306 307 329 4 0 329 319 314 309 299 284 256 225 211 206 207 214 219 219 216 210 222 235 242 240 238 241 248 253 260 269 278 284 286 287 287 285 288 295 301 303 299 300 304 306 298 295 293 291 289 287 286 285 284 282 279 277 274 271 270 270 270 268 264
236 251 254 253 257 273 347 12 16 19 28 21 356 327 311 324 347 20 2 283 281 282 286 289 320 41 55 319 303 300 301 300 300 295 272 245 229 223 227 228 222 210 195 200 215 232 242 242 242 244 245 251 261 270 277 282 286 287 285 285 285 284 282 291 300 307 309 303 298 293 288 286 285 285 284 281 279 277 275 272 270 268 266 265 263 262
242 281 301 304 329 4 21 6 0 7 23 7 338 320 317 330 347 1 333 283 282 283 278 287 331 0 332 295 282 280 281 290 302 307 300 283 271 262 252 243 230 215 201 204 211 223 239 252 256 254 250 251 258 264 271 278 282 284 284 281 278 274 270 279 288 295 297 296 294 290 286 287 288 289 285 279 275 273 270 268 266 264 262 259 258 258
45 7 356 354 0 3 354 342 357 18 26 11 352 335 326 340 350 347 295 273 272 273 275 283 311 320 300 290 287 285 285 292 300 309 315 310 304 295 280 258 242 227 215 217 219 224 230 242 251 259 264 264 262 261 263 270 276 280 280 279 278 276 276 278 279 279 279 282 284 285 285 288 287 282 277 276 274 272 268 263 260 259 259 258 256 256
53 31 12 0 354 351 350 6 23 31 30 12 349 336 335 335 331 313 289 272 266 268 278 288 291 287 287 291 300 311 319 327 328 328 326 317 307 298 288 272 254 239 227 229 230 232 234 237 240 245 255 264 266 265 262 262 265 269 273 275 278 279 279 278 275 273 271 272 273 277 282 287 283 276 272 274 275 274 270 264 259 257 256 257 258 259
81 67 40 28 10 0 355 13 21 23 10 351 335 322 319 308 302 297 288 279 277 282 294 306 308 305 302 306 318 327 330 328 323 318 313 302 290 282 279 276 272 268 261 257 251 246 241 237 233 230 230 239 252 261 264 260 258 258 262 268 272 275 276 275 274 272 270 267 265 266 268 271 271 272 275 277 276 274 271 265 259 254 253 255 257 260
109 106 82 53 21 357 346 350 350 343 334 322 309 295 286 280 285 290 280 277 282 294 305 314 317 318 315 316 318 320 318 311 303 295 291 282 272 268 270 280 298 314 317 299 282 267 256 245 234 224 216 217 228 243 257 258 257 255 256 259 263 266 270 272 272 271 268 266 262 257 252 254 258 263 272 274 275 275 276 276 274 271 267 264 262 261
78 71 50 34 350 326 312 307 302 298 294 288 281 275 271 271 275 275 267 273 288 298 308 312 312 311 306 304 304 303 301 294 289 285 284 278 270 265 272 292 312 319 315 303 293 288 286 271 250 233 220 215 215 222 240 252 258 259 259 256 255 256 260 265 267 267 264 264 260 255 250 251 253 256 261 268 275 281 286 287 287 286 279 271 263 259
1 339 322 296 283 277 271 269 271 272 272 268 268 270 274 280 284 282 276 283 290 295 297 297 295 293 291 292 293 292 291 290 288 286 283 280 278 276 280 287 293 299 301 295 293 291 293 294 288 269 244 226 217 213 220 235 249 259 262 256 250 248 250 257 259 261 260 260 259 255 252 253 253 253 255 270 283 289 292 291 289 286 281 276 269 266